Weather History for KRXE - March, 2014

Change the Weather History Date:

Wednesday, March 19, 2014

  Actual Average Record
Temperature  
Mean Temperature 34 °F 36 °F  
Max Temperature 47 °F 46 °F 64 °F (2007)
Min Temperature 20 °F 25 °F 15 °F (2002)
Degree Days  
Heating Degree Days 31 29  
Month to date heating degree days 534 634  
Since 1 July heating degree days 6349 6607  
Cooling Degree Days 0 0  
Month to date cooling degree days 0 0  
Year to date cooling degree days 0 0  
Moisture  
Dew Point 14 °F    
Average Humidity 48    
Maximum Humidity 74    
Minimum Humidity 21    
Precipitation  
Precipitation 0.00 in 0.03 in 0.27 in (2008)
Month to date precipitation 0.50 0.55  
Year to date precipitation 1.90 2.12  
Sea Level Pressure  
Sea Level Pressure 30.15 in    
Wind  
Wind Speed 12 mph (SSW)    
Max Wind Speed 25 mph    
Max Gust Speed 33 mph    
Visibility 10 miles    
Events      
T = Trace of Precipitation, MM = Missing Value Source: NWS Daily Summary

Daily Weather History Graph

Daily Weather History Graph

Search for Another Location

Airport or City:

Trip Planner

Search our weather history database for the weather conditions in past years. The results will help you decide how hot, cold, wet, or windy it might be!

Date:

Astronomy

Mar. 19, 2014 Rise Set
Actual Time 7:32 AM MDT 7:38 PM MDT
Civil Twilight 7:03 AM MDT 8:07 PM MDT
Nautical Twilight 6:29 AM MDT 8:40 PM MDT
Astronomical Twilight 5:55 AM MDT 9:15 PM MDT
Moon 11:08 PM MDT (3/19) 8:54 AM MDT (3/19)
Length of Visible Light 13h 03m
Length of Day
12h 06m
Waning Gibbous, 91% of the Moon is Illuminated
Mar 19
Waning Gibbous
Mar 23
Last Quarter
Mar 30
New
Apr 7
First Quarter
Apr 15
Full

Hourly Weather History & Observations

Time (MDT) Temp. Windchill Dew Point Humidity Pressure Visibility Wind Dir Wind Speed Gust Speed Precip Events Conditions
12:53 AM 26.1 °F 19.4 °F 18.0 °F 71% 30.20 in 10.0 mi South 5.8 mph - N/A   Clear
1:53 AM 23.0 °F 15.8 °F 16.0 °F 74% 30.21 in 10.0 mi SSW 5.8 mph - N/A   Clear
2:53 AM 25.0 °F 15.5 °F 17.1 °F 72% 30.21 in 10.0 mi South 9.2 mph - N/A   Clear
3:53 AM 27.0 °F 18.0 °F 15.1 °F 61% 30.20 in 10.0 mi South 9.2 mph - N/A   Clear
4:53 AM 26.1 °F 17.6 °F 15.1 °F 63% 30.20 in 10.0 mi South 8.1 mph - N/A   Clear
5:53 AM 25.0 °F 17.1 °F 15.1 °F 66% 30.20 in 10.0 mi SSW 6.9 mph - N/A   Clear
6:53 AM 25.0 °F 15.5 °F 14.0 °F 63% 30.22 in 10.0 mi SSW 9.2 mph - N/A   Clear
7:53 AM 21.9 °F - 12.9 °F 68% 30.25 in 10.0 mi Calm Calm - N/A   Clear
8:53 AM 28.0 °F 18.6 °F 14.0 °F 56% 30.24 in 10.0 mi South 10.4 mph - N/A   Clear
9:53 AM 30.9 °F 21.2 °F 14.0 °F 50% 30.26 in 10.0 mi South 12.7 mph - N/A   Clear
10:53 AM 34.0 °F 25.5 °F 14.0 °F 44% 30.28 in 10.0 mi South 11.5 mph - N/A   Clear
11:53 AM 37.0 °F 29.3 °F 12.9 °F 37% 30.25 in 10.0 mi SW 11.5 mph - N/A   Clear
12:53 PM 39.0 °F 29.9 °F 12.0 °F 33% 30.22 in 10.0 mi SSW 17.3 mph 24.2 mph N/A   Clear
1:53 PM 42.1 °F 34.9 °F 12.0 °F 29% 30.19 in 10.0 mi SW 13.8 mph 25.3 mph N/A   Clear
2:53 PM 44.1 °F 37.4 °F 10.9 °F 26% 30.14 in 10.0 mi SW 13.8 mph 28.8 mph N/A   Clear
3:53 PM 46.9 °F - 9.0 °F 21% 30.09 in 10.0 mi SW 18.4 mph 31.1 mph N/A   Clear
4:53 PM 46.0 °F 38.8 °F 10.9 °F 24% 30.06 in 10.0 mi SW 18.4 mph 27.6 mph N/A   Clear
5:53 PM 46.0 °F 38.0 °F 9.0 °F 22% 30.04 in 10.0 mi SW 21.9 mph 32.2 mph N/A   Clear
6:53 PM 45.0 °F 38.2 °F 9.0 °F 23% 30.04 in 10.0 mi SSW 15.0 mph 29.9 mph N/A   Clear
7:53 PM 42.1 °F 36.6 °F 12.0 °F 29% 30.05 in 10.0 mi SSW 9.2 mph - N/A   Clear
8:53 PM 42.1 °F 35.2 °F 14.0 °F 32% 30.03 in 10.0 mi SSW 12.7 mph - N/A   Clear
9:53 PM 39.0 °F 30.6 °F 16.0 °F 39% 30.04 in 10.0 mi South 15.0 mph 21.9 mph N/A   Clear
10:53 PM 37.9 °F 28.5 °F 16.0 °F 41% 30.03 in 10.0 mi South 17.3 mph 26.5 mph N/A   Clear
11:53 PM 37.0 °F 27.7 °F 16.0 °F 42% 30.01 in 10.0 mi South 16.1 mph 28.8 mph N/A   Clear